Content
SEND FEEDBACK

Daily
Averages
Monthly
Summary
United States of America

TRENTON, MISSOURI


Home > North America > United States > Missouri
Elevation: 805 feet     Latitude: 40 04N     Longitude: 093 37W

WEATHER
 
SELECT A DAY
Number of Records: 136,434;   Date Range: 5/21/98 - 8/28/14
 
SHARE

PRINT THIS DATA

[ ← Previous Day ]
WEATHER ALMANAC - FEBRUARY 13, 2013
[ Next Day → ]
[ °C ]   °F
Weather ElementAverageHighLow
Temperature38.5 °F54 °F (3:52 pm)25 °F (1:52 am)
Dewpoint24.5 °F28.9 °F (12:52 pm)21 °F (5:52 am)
Humidity60 %88 % (1:52 am)30 % (3:52 pm)
Barometer29.88 in29.95 in (1:52 am)29.81 in (9:52 pm)
Wind Speed3.4 mph10.4 mph (2:52 pm)
Wind Gust17.3 mph (3:52 pm)
Weather ElementAverage
Wind DirectionESE (110 °)

Weather ElementTotal
Precipitation---
Heating Degree Days25.5 (Base 65)
Averaged from 23 records on February 13, 2013
WEATHER CONDITIONS BREAKOUT
WIND DIRECTION BREAKOUT
WEATHER BY HOUR - FEBRUARY 13, 2013
[ °C ]   °F
Local TimeTemperatureDewpointHumidityBarometerVisibilityWind DirectionWind SpeedGust SpeedPrecipitationEventsConditions
1:52 AM25.0 °F21.9 °F88 %29.95 inSouth (190°)4.6 mph
2:52 AM26.1 °F21.9 °F84 %29.93 inCalm
3:52 AM30.0 °F21.9 °F72 %29.92 inCalm
4:52 AM28.9 °F21.9 °F75 %29.91 inWest (270°)4.6 mph
5:52 AM28.0 °F21.0 °F75 %29.91 inCalm
6:52 AM27.0 °F21.0 °F78 %29.92 inCalm
7:52 AM26.1 °F21.0 °F81 %29.94 inCalm
8:52 AM32.0 °F24.1 °F73 %29.94 inCalm
9:52 AM36.0 °F26.1 °F67 %29.94 inNorth
10:52 AM41.0 °F26.1 °F55 %29.92 inWNW (290°)5.8 mph
11:52 AM45.0 °F27.0 °F49 %29.91 inVariable5.8 mph
12:52 PM48.9 °F28.9 °F46 %29.88 inWSW (240°)8.1 mph16.1 mph
1:52 PM50.0 °F28.0 °F43 %29.86 inSW (220°)5.8 mph
2:52 PM52.0 °F26.1 °F37 %29.83 inSW (220°)10.4 mph
3:52 PM54.0 °F23.0 °F30 %29.83 inWSW (250°)9.2 mph17.3 mph
4:52 PM53.1 °F24.1 °F32 %29.82 inCalm
5:52 PM48.0 °F25.0 °F41 %29.82 inCalm
6:52 PM41.0 °F27.0 °F57 %29.83 inCalm
7:52 PM37.9 °F27.0 °F65 %29.84 inCalm
8:52 PM39.0 °F25.0 °F57 %29.82 inSSW (210°)4.6 mph
9:52 PM41.0 °F25.0 °F53 %29.81 inSSW (210°)4.6 mph
10:52 PM35.1 °F25.0 °F67 %29.81 inSSW (200°)4.6 mph
11:52 PM39.9 °F25.0 °F55 %29.81 inSW (230°)5.8 mph
Hourly data recorded from KCDJ, located miles away from Trenton, Missouri







STORIES FROM OUR PARTNERS